OpenBCM V1.13 (Linux)

Packet Radio Mailbox

DB0FHN

[JN59NK Nuernberg]

 Login: GUEST





  
CX2SA  > KEPS     28.08.04 05:08l 207 Lines 5445 Bytes #999 (0) @ AMSAT
BID : ORB04240.W
Read: GUEST
Subj: Orbital Elements  04240.WEATHER
Path: DB0FHN<DB0MRW<DB0SON<DB0SIF<DB0AIS<DB0ZDF<DB0GE<F6KFT<F6KMO<ON0BEL<
      ZL2TZE<ED1ZAC<CX2SA
Sent: 040828/0300Z @:CX2SA.LAV.URY.SA #:6111 [Minas] FBB7.00e $:ORB04240.W
From: CX2SA@CX2SA.LAV.URY.SA
To  : KEPS@AMSAT


HR AMSAT ORBITAL ELEMENTS FOR WEATHER SATELLITES
FROM WA5QGD FORT WORTH,TX August 27, 2004
SEND SUBSCRIBE/UNSUBSCRIBE TO majordomo@amsat.org ONLY
BID: ORB04240.W
TO ALL RADIO AMATEURS BT

Satellite: NOAA-10
Catalog number: 16969
Epoch time:      04240.44674059
Element set:     369
Inclination:       98.7592 deg
RA of node:       239.5973 deg
Eccentricity:    0.0011415
Arg of perigee:   267.3842 deg
Mean anomaly:      92.6037 deg
Mean motion:   14.27209549 rev/day
Decay rate:        9.5e-07 rev/day^2
Epoch rev:           93319
Checksum:              341

Satellite: NOAA-11
Catalog number: 19531
Epoch time:      04240.43787284
Element set:     227
Inclination:       98.8651 deg
RA of node:       323.8664 deg
Eccentricity:    0.0012437
Arg of perigee:    65.8987 deg
Mean anomaly:     294.3500 deg
Mean motion:   14.14725952 rev/day
Decay rate:       1.45e-06 rev/day^2
Epoch rev:           82139
Checksum:              320

Satellite: NOAA-12
Catalog number: 21263
Epoch time:      04240.41910904
Element set:     712
Inclination:       98.6752 deg
RA of node:       227.4712 deg
Eccentricity:    0.0012338
Arg of perigee:   199.5363 deg
Mean anomaly:     160.5350 deg
Mean motion:   14.25408304 rev/day
Decay rate:       2.85e-06 rev/day^2
Epoch rev:           69039
Checksum:              283

Satellite: MET-3/5
Catalog number: 21655
Epoch time:      04240.85675324
Element set:     644
Inclination:       82.5584 deg
RA of node:         5.8791 deg
Eccentricity:    0.0012049
Arg of perigee:   246.9936 deg
Mean anomaly:     112.9917 deg
Mean motion:   13.16995725 rev/day
Decay rate:        5.1e-07 rev/day^2
Epoch rev:           62670
Checksum:              324

Satellite: MET-2/21
Catalog number: 22782
Epoch time:      04240.30165286
Element set:     989
Inclination:       82.5497 deg
RA of node:       134.1244 deg
Eccentricity:    0.0021365
Arg of perigee:   225.0414 deg
Mean anomaly:     134.9021 deg
Mean motion:   13.83567424 rev/day
Decay rate:       -6.5e-07 rev/day^2
Epoch rev:           55493
Checksum:              294

Satellite: OKEAN-4
Catalog number: 23317
Epoch time:      04240.85566981
Element set:     431
Inclination:       82.5420 deg
RA of node:       170.8304 deg
Eccentricity:    0.0023877
Arg of perigee:    25.6020 deg
Mean anomaly:     334.6370 deg
Mean motion:   14.81864252 rev/day
Decay rate:       5.51e-06 rev/day^2
Epoch rev:           53246
Checksum:              280

Satellite: NOAA-14
Catalog number: 23455
Epoch time:      04240.39336143
Element set:     257
Inclination:       99.1369 deg
RA of node:       277.2860 deg
Eccentricity:    0.0010258
Arg of perigee:   107.4284 deg
Mean anomaly:     252.8011 deg
Mean motion:   14.13480615 rev/day
Decay rate:      -1.22e-06 rev/day^2
Epoch rev:           49799
Checksum:              297

Satellite: SICH-1
Catalog number: 23657
Epoch time:      04240.20840653
Element set:     235
Inclination:       82.5314 deg
RA of node:       312.2483 deg
Eccentricity:    0.0024842
Arg of perigee:    12.6481 deg
Mean anomaly:     347.5344 deg
Mean motion:   14.80902466 rev/day
Decay rate:       4.22e-06 rev/day^2
Epoch rev:           48444
Checksum:              272

Satellite: NOAA-15
Catalog number: 25338
Epoch time:      04240.53328332
Element set:     710
Inclination:       98.5200 deg
RA of node:       251.7452 deg
Eccentricity:    0.0011230
Arg of perigee:   132.2070 deg
Mean anomaly:     228.0068 deg
Mean motion:   14.24446362 rev/day
Decay rate:        6.0e-07 rev/day^2
Epoch rev:           32694
Checksum:              249

Satellite: RESURS
Catalog number: 25394
Epoch time:      04240.23391199
Element set:     886
Inclination:       98.5774 deg
RA of node:       311.2526 deg
Eccentricity:    0.0000825
Arg of perigee:   335.4815 deg
Mean anomaly:      24.6324 deg
Mean motion:   14.24019816 rev/day
Decay rate:        3.2e-07 rev/day^2
Epoch rev:           31861
Checksum:              287

Satellite: FENGYUN1
Catalog number: 25730
Epoch time:      04240.72570701
Element set:     218
Inclination:       98.6078 deg
RA of node:       248.3106 deg
Eccentricity:    0.0013818
Arg of perigee:   215.1582 deg
Mean anomaly:     144.8680 deg
Mean motion:   14.11777382 rev/day
Decay rate:       1.30e-06 rev/day^2
Epoch rev:           27310
Checksum:              273

Satellite: OKEAN-0
Catalog number: 25860
Epoch time:      04239.93121057
Element set:    0246
Inclination:      097.7931 deg
RA of node:       272.2561 deg
Eccentricity:    0.0002196
Arg of perigee:   078.5654 deg
Mean anomaly:     281.5801 deg
Mean motion:   14.73105176 rev/day
Decay rate:       1.67e-06 rev/day^2
Epoch rev:           27468
Checksum:              304

Satellite: NOAA-16
Catalog number: 26536
Epoch time:      04240.47107571
Element set:       0
Inclination:       98.9680 deg
RA of node:       191.9306 deg
Eccentricity:    0.0010653
Arg of perigee:   171.3367 deg
Mean anomaly:     188.7987 deg
Mean motion:   14.12145552 rev/day
Decay rate:       -2.4e-07 rev/day^2
Epoch rev:           20260
Checksum:              289

Satellite: NOAA-17
Catalog number: 27453
Epoch time:      04240.43473319
Element set:      25
Inclination:       98.6959 deg
RA of node:       311.9123 deg
Eccentricity:    0.0012050
Arg of perigee:   182.9431 deg
Mean anomaly:     177.1658 deg
Mean motion:   14.23563080 rev/day
Decay rate:       1.73e-06 rev/day^2
Epoch rev:           11304
Checksum:              279



Read previous mail | Read next mail


 15.04.2026 14:14:18lGo back Go up